Location: Babice
(50.3480°N, 22.9363°E)
Time: 12:49:39
(UTC+00:00)

Helios 1B rocket - Pass Details

Date: 14 July 2020
Orbit: 574 x 584 km, 98.1° (Epoch: 07 August)

Event Time Altitude Azimuth Distance (km) Brightness Sun altitude
Rises 00:24:46 0° 2° (N) 2,812 7.2 -14.0°
Reaches altitude 10° 00:27:23 10° 346° (NNW) 1,906 5.8 -13.8°
Maximum altitude 00:30:22 20° 299° (WNW) 1,374 4.4 -13.6°
Enters shadow 00:33:06 11° 255° (WSW) 1,820 4.6 -13.4°
